Flag for Germany Weather past 2 weeks in Oranienburg, Brandenburg, Germany

Now
74 °F

Thunderstorms. Overcast.


Feels Like: 76 °F
Forecast: 66 / 78 °F
Wind: 5 mph from Southeast

Location: Berlin-Tegel

Current Time: Jul 5, 2015 at 4:54:59 AM

Latest Report: Jul 5, 2015 at 4:00 AM


Visibility: 17 mi

Pressure: 30.05 "Hg

Humidity: 74%

Dew point: 65 °F

Location of OranienburgLocation

Historic Weather in Oranienburg — Graph

°F

Oranienburg temperature yesterday

Maximum temperature yesterday: 98 °F (at 4:00 PM)
Minimum temperature yesterday: 73 °F (at 5:00 AM)
Average temperature yesterday: 87 °F

Past Weeks' High & Low Weather Summary

 TemperatureHumidityPressure
High98 °F (Jul 4, 4:00 PM)98% (Jun 24, 6:00 AM)30.29 "Hg (Jun 24, 6:00 AM)
Low49 °F (Jun 24, 5:00 AM)22% (Jul 4, 5:00 PM)29.62 "Hg (Jun 23, 2:00 AM)
Average66 °F63%30.07 "Hg
* Reported Jun 20 3:00 AM — Jul 5 3:00 AM, Oranienburg, Weather by CustomWeather, © 2015

Note: Actual official high and low records may vary slightly from our data, if they occured in-between our weather recording intervals... More about our weather records

Advertising

Oranienburg weather history for previous 24 hours

 ConditionsComfort  
Time TempWeatherWind HumidityBarometerVisibility
3:00 AM
Sun, Jul 5
76 °FLight rain. Overcast.3 mph63%30.09 "Hg16 mi
2:00 AM76 °FOvercast.2 mph64%30.09 "Hg19 mi
1:00 AM78 °FOvercast.5 mph61%30.10 "Hg19 mi
12:00 AM78 °FOvercast.1 mph85%30.06 "Hg22 mi
11:00 PM
Sat, Jul 4
79 °FSprinkles. Overcast.1 mph73%30.04 "Hg19 mi
10:00 PM87 °FThunderstorms. Overcast.2 mph39%30.06 "Hg12 mi
9:00 PM91 °FOvercast.3 mph33%30.04 "Hg12 mi
8:00 PM94 °FOvercast.3 mph27%30.03 "Hg14 mi
7:00 PM97 °FOvercast.3 mph25%30.03 "Hg16 mi
6:00 PM98 °FScattered clouds.3 mph23%30.04 "Hg16 mi
5:00 PM98 °FPartly sunny.5 mph22%30.06 "Hg16 mi
4:00 PM98 °FPartly sunny.3 mph24%30.07 "Hg16 mi
3:00 PM97 °FScattered clouds.3 mph25%30.09 "Hg16 mi
2:00 PM96 °FScattered clouds.5 mph26%30.10 "Hg16 mi
1:00 PM94 °FScattered clouds.3 mph29%30.12 "Hg16 mi
12:00 PM92 °FScattered clouds.3 mph33%30.14 "Hg16 mi
11:00 AM89 °FScattered clouds.3 mph35%30.15 "Hg17 mi
10:00 AM85 °FPassing clouds.3 mph41%30.15 "Hg17 mi
9:00 AM81 °FSunny.2 mph44%30.16 "Hg19 mi
8:00 AM78 °FSunny.2 mph48%30.17 "Hg19 mi
7:00 AM75 °FSunny.2 mph47%30.17 "Hg19 mi
5:00 AM73 °FSunny.1 mph45%30.17 "Hg19 mi
4:00 AM75 °FClear.2 mph41%30.18 "Hg25 mi
Weather by CustomWeather, © 2015

See weather overviewHow to use our weather pages